Location: Molveno
(46.1500°N, 10.9667°E)
Time: 17:09:30
(UTC+00:00)

Cosmos 1420 Rocket - Pass Details

Date: 05 July 2020
Orbit: 754 x 781 km, 74.0° (Epoch: 10 August)

Event Time Altitude Azimuth Distance (km) Brightness Sun altitude
Rises 22:51:13 0° 338° (NNW) 3,250 8.6 -20.9°
Reaches altitude 10° 22:53:36 10° 338° (NNW) 2,324 7.6 -20.9°
Maximum altitude 22:58:54 90° 314° (NW) 782 3.9 -21.0°
Enters shadow 23:00:34 45° 160° (SSE) 1,045 4.2 -21.0°
